DW7775 Weather Reports


Display with metric or nautical units.
time (UTC)temp
F
wind
direction
speed
MPH
gust
MPH
rain 1hr
in
rain 24hr
in
rain mn
in
humidity
%
barometer
mb
20260504033519 59 97 1.0 5.0 0.00 0.02 0.02 63 1005.5
20260504032519 59 90 2.0 5.0 0.00 0.02 0.02 63 1005.5
20260504031519 59 96 2.0 5.0 0.00 0.02 0.02 62 1005.5
20260504030519 59 101 1.0 4.0 0.00 0.02 0.02 63 1005.6
20260504025557 59 97 1.0 3.0 0.00 0.02 0.02 63 1005.6
20260504024517 60 75 2.0 3.0 0.00 0.02 0.02 61 1005.6
20260504023517 60 62 2.0 4.0 0.00 0.02 0.02 60 1005.6
20260504022517 60 78 2.0 4.0 0.00 0.02 0.02 60 1005.5
20260504021520 59 78 2.0 3.0 0.00 0.02 0.02 61 1005.5
20260504020517 59 84 2.0 3.0 0.00 0.02 0.02 61 1005.4
20260504015518 59 69 2.0 4.0 0.00 0.02 0.02 61 1005.4
20260504014518 60 78 2.0 3.0 0.00 0.02 0.02 61 1005.3
20260504013621 61 60 3.0 5.0 0.00 0.02 0.02 57 1005.2
20260504012518 62 68 1.0 4.0 0.00 0.02 0.02 55 1005.0
20260504011518 64 71 1.0 3.0 0.00 0.02 0.02 53 1005.0
20260504010518 65 69 1.0 2.0 0.00 0.02 0.02 51 1004.9
20260504005518 66 62 1.0 2.0 0.00 0.02 0.02 50 1004.8
20260504004521 66 232 1.0 3.0 0.00 0.02 0.02 48 1004.9
20260504003518 66 225 2.0 6.0 0.00 0.02 0.02 48 1004.9
20260504002519 67 212 1.0 4.0 0.00 0.02 0.02 47 1004.9
20260504001519 67 212 2.0 4.0 0.00 0.02 0.02 46 1004.9
20260504000519 68 212 2.0 8.0 0.00 0.02 0.02 45 1005.0
20260503235519 68 204 2.0 5.0 0.00 0.02 0.02 45 1004.9
20260503234519 68 212 2.0 6.0 0.00 0.02 0.02 45 1004.9
20260503233519 68 220 3.0 8.0 0.00 0.02 0.02 45 1004.9
20260503232520 68 212 2.0 5.0 0.00 0.02 0.02 45 1005.0
20260503231519 68 226 4.0 8.0 0.00 0.02 0.02 44 1005.1
20260503230519 68 228 4.0 9.0 0.00 0.02 0.02 45 1005.0
20260503225516 68 193 3.0 7.0 0.00 0.02 0.02 46 1005.1
20260503224517 67 234 4.0 9.0 0.00 0.02 0.02 45 1005.2
20260503223537 67 225 4.0 8.0 0.00 0.02 0.02 46 1005.3
20260503222517 67 218 4.0 10.0 0.00 0.02 0.02 46 1005.3
20260503221521 66 229 5.0 12.0 0.00 0.02 0.02 46 1005.4
20260503220521 66 226 6.0 12.0 0.00 0.02 0.02 46 1005.5
20260503215518 66 227 5.0 13.0 0.00 0.02 0.02 47 1005.7
20260503214518 66 228 6.0 12.0 0.00 0.02 0.02 46 1005.8
20260503213521 66 229 5.0 12.0 0.00 0.02 0.02 46 1006.0
20260503212518 66 225 4.0 10.0 0.00 0.02 0.02 46 1006.1
20260503211518 66 228 5.0 10.0 0.00 0.02 0.02 46 1006.2
20260503210518 65 227 5.0 11.0 0.00 0.02 0.02 46 1006.4
20260503205518 65 230 6.0 11.0 0.00 0.02 0.02 46 1006.5
20260503204521 64 225 5.0 13.0 0.00 0.02 0.02 46 1006.8
20260503203519 64 223 4.0 15.0 0.00 0.02 0.02 50 1007.0
20260503202519 64 223 5.0 12.0 0.00 0.02 0.02 50 1007.2
20260503201519 63 210 4.0 8.0 0.00 0.02 0.02 52 1007.6
20260503200519 62 221 4.0 11.0 0.00 0.02 0.02 54 1007.9
20260503195519 62 207 4.0 9.0 0.00 0.02 0.02 53 1008.2
20260503194519 61 224 5.0 13.0 0.00 0.02 0.02 52 1008.2
20260503193519 62 231 6.0 14.0 0.00 0.02 0.02 52 1008.2
20260503192519 61 167 5.0 10.0 0.00 0.02 0.02 53 1008.2
20260503191540 60 174 6.0 11.0 0.00 0.02 0.02 53 1008.3
20260503190520 60 187 6.0 12.0 0.00 0.02 0.02 54 1008.4
20260503185517 60 192 6.0 14.0 0.00 0.02 0.02 53 1008.4
20260503184517 60 181 3.0 10.0 0.00 0.02 0.02 55 1008.5
20260503183517 59 152 5.0 10.0 0.00 0.02 0.02 56 1008.7
20260503182518 58 172 5.0 13.0 0.00 0.02 0.02 57 1008.9
20260503181520 57 159 6.0 14.0 0.00 0.02 0.02 58 1009.1
20260503180521 57 163 8.0 17.0 0.00 0.02 0.02 58 1009.4
20260503175538 56 186 7.0 17.0 0.00 0.02 0.02 59 1009.7
20260503174518 57 203 6.0 17.0 0.00 0.02 0.02 59 1010.0
20260503173518 57 205 4.0 12.0 0.00 0.02 0.02 62 1010.3
20260503172518 56 165 5.0 13.0 0.00 0.02 0.02 64 1010.6
20260503171518 55 177 6.0 11.0 0.01 0.02 0.02 66 1010.9
20260503170518 53 206 4.0 11.0 0.02 0.02 0.02 69 1011.1
20260503150517 54 181 3.0 8.0 0.00 0.00 0.00 60 1012.2
20260503130518 52 202 3.0 12.0 0.00 0.00 0.00 57 1013.1
20260503110517 49 210 2.0 7.0 0.00 0.00 0.00 56 1012.7
20260503081520 47 218 2.0 6.0 0.00 0.00 0.00 55 1013.7
20260503080517 47 211 2.0 6.0 0.00 0.00 0.00 55 1013.6
20260503072518 46 176 1.0 3.0 0.00 0.00 0.00 56 1013.7
20260503071517 46 164 1.0 4.0 0.00 0.00 0.00 57 1013.8
20260503070517 46 195 1.0 4.0 0.00 0.00 0.00 57 1013.9
20260503054519 45 96 1.0 3.0 0.00 0.00 0.00 61 1014.6
20260503053539 45 102 1.0 2.0 0.00 0.00 0.00 60 1014.6
20260503052519 45 124 1.0 2.0 0.00 0.00 0.00 60 1014.7
20260503051519 46 204 1.0 4.0 0.00 0.00 0.00 60 1014.8
20260503050519 46 138 1.0 3.0 0.00 0.00 0.00 59 1014.8
20260503045519 46 171 1.0 3.0 0.00 0.00 0.00 59 1014.8
20260503044520 46 121 1.0 2.0 0.00 0.00 0.00 58 1014.8
20260503043519 46 138 1.0 2.0 0.00 0.00 0.00 59 1014.9
20260503042520 46 145 1.0 3.0 0.00 0.00 0.00 58 1014.9
20260503041520 46 169 1.0 3.0 0.00 0.00 0.00 59 1015.0
20260503040517 45 167 1.0 3.0 0.00 0.00 0.00 60 1015.1
20260503035517 46 106 1.0 2.0 0.00 0.00 0.00 60 1015.1
20260503034520 46 121 1.0 2.0 0.00 0.00 0.00 59 1015.2